Time,TemperatureF,DewpointF,PressureIn,WindDirection,WindDirectionDegrees,WindSpeedMPH,WindSpeedGustMPH,Humidity,HourlyPrecipIn,Conditions,Clouds,dailyrainin,SoftwareType,DateUTC
2013-01-17 00:05:00,51.0,51.0,29.93,SE,131,0.0,0.0,100,0.02,,,-99.99,,2013-01-17 05:05:00,
2013-01-17 00:12:00,51.0,51.0,29.93,SE,131,0.0,0.0,100,0.02,,,-99.99,,2013-01-17 05:12:00,
2013-01-17 00:22:00,51.0,51.0,29.93,SE,131,0.0,0.0,100,0.02,,,-99.99,,2013-01-17 05:22:00,
2013-01-17 00:33:00,51.0,51.0,29.91,SE,131,0.0,0.0,100,0.04,,,-99.99,,2013-01-17 05:33:00,
2013-01-17 00:42:00,51.0,51.0,29.91,SE,131,0.0,0.0,100,0.04,,,-99.99,,2013-01-17 05:42:00,
2013-01-17 00:53:00,51.0,51.0,29.91,SE,131,0.0,0.0,100,0.04,,,-99.99,,2013-01-17 05:53:00,
2013-01-17 01:03:00,50.0,50.0,29.91,SE,131,0.0,0.0,100,0.02,,,-99.99,,2013-01-17 06:03:00,
2013-01-17 01:12:00,50.0,50.0,29.91,SE,131,0.0,0.0,100,0.02,,,-99.99,,2013-01-17 06:12:00,
2013-01-17 01:22:00,50.0,50.0,29.91,SE,131,0.0,0.0,100,0.02,,,-99.99,,2013-01-17 06:22:00,
2013-01-17 01:33:00,50.0,50.0,29.91,SE,131,0.0,0.0,100,0.00,,,-99.99,,2013-01-17 06:33:00,
2013-01-17 01:42:00,50.0,50.0,29.91,SE,131,0.0,0.0,100,0.00,,,-99.99,,2013-01-17 06:42:00,
2013-01-17 01:53:00,50.0,50.0,29.91,SE,131,0.0,0.0,100,0.00,,,-99.99,,2013-01-17 06:53:00,
2013-01-17 02:02:00,50.0,50.0,29.91,SE,131,0.0,0.0,100,0.00,,,-99.99,,2013-01-17 07:02:00,
2013-01-17 02:12:00,50.0,50.0,29.91,SE,131,0.0,0.0,100,0.00,,,-99.99,,2013-01-17 07:12:00,
2013-01-17 02:22:00,50.0,50.0,29.91,SE,131,0.0,0.0,100,0.00,,,-99.99,,2013-01-17 07:22:00,
2013-01-17 02:33:00,50.0,50.0,29.91,SE,131,0.0,0.0,100,0.00,,,-99.99,,2013-01-17 07:33:00,
2013-01-17 02:42:00,50.0,50.0,29.91,SE,131,0.0,0.0,100,0.00,,,-99.99,,2013-01-17 07:42:00,
2013-01-17 02:53:00,50.0,50.0,29.91,SE,131,0.0,0.0,100,0.00,,,-99.99,,2013-01-17 07:53:00,
2013-01-17 03:02:00,50.0,50.0,29.90,SE,131,0.0,1.0,100,0.01,,,-99.99,,2013-01-17 08:02:00,
2013-01-17 03:12:00,50.0,50.0,29.90,SE,131,0.0,1.0,100,0.01,,,-99.99,,2013-01-17 08:12:00,
2013-01-17 03:22:00,50.0,50.0,29.90,SE,131,0.0,1.0,100,0.01,,,-99.99,,2013-01-17 08:22:00,
2013-01-17 03:32:00,50.0,50.0,29.90,NNW,333,1.0,5.0,100,0.02,,,-99.99,,2013-01-17 08:32:00,
2013-01-17 03:43:00,50.0,50.0,29.90,NNW,333,1.0,5.0,100,0.02,,,-99.99,,2013-01-17 08:43:00,
2013-01-17 03:53:00,50.0,50.0,29.90,NNW,333,1.0,5.0,100,0.02,,,-99.99,,2013-01-17 08:53:00,
2013-01-17 04:03:00,48.0,48.0,29.90,WNW,301,1.0,2.0,100,0.01,,,-99.99,,2013-01-17 09:03:00,
2013-01-17 04:12:00,48.0,48.0,29.90,WNW,301,1.0,2.0,100,0.01,,,-99.99,,2013-01-17 09:12:00,
2013-01-17 04:22:00,48.0,48.0,29.90,WNW,301,1.0,2.0,100,0.01,,,-99.99,,2013-01-17 09:22:00,
2013-01-17 04:33:00,47.0,47.0,29.90,ENE,59,0.0,3.0,100,0.01,,,-99.99,,2013-01-17 09:33:00,
2013-01-17 04:42:00,47.0,47.0,29.90,ENE,59,0.0,3.0,100,0.01,,,-99.99,,2013-01-17 09:42:00,
2013-01-17 04:53:00,47.0,47.0,29.90,ENE,59,0.0,3.0,100,0.01,,,-99.99,,2013-01-17 09:53:00,
2013-01-17 05:02:00,46.0,46.0,29.90,WSW,243,1.0,2.0,100,0.03,,,-99.99,,2013-01-17 10:02:00,
2013-01-17 05:12:00,46.0,46.0,29.90,WSW,243,1.0,2.0,100,0.03,,,-99.99,,2013-01-17 10:12:00,
2013-01-17 05:22:00,46.0,46.0,29.90,WSW,243,1.0,2.0,100,0.03,,,-99.99,,2013-01-17 10:22:00,
2013-01-17 05:32:00,45.0,45.0,29.91,WSW,243,0.0,0.0,100,0.03,,,-99.99,,2013-01-17 10:32:00,
2013-01-17 05:42:00,45.0,45.0,29.91,WSW,243,0.0,0.0,100,0.03,,,-99.99,,2013-01-17 10:42:00,
2013-01-17 05:53:00,45.0,45.0,29.91,WSW,243,0.0,0.0,100,0.03,,,-99.99,,2013-01-17 10:53:00,
2013-01-17 06:03:00,45.0,45.0,29.91,WSW,243,0.0,0.0,100,0.04,,,-99.99,,2013-01-17 11:03:00,
2013-01-17 06:12:00,45.0,45.0,29.91,WSW,243,0.0,0.0,100,0.04,,,-99.99,,2013-01-17 11:12:00,
2013-01-17 06:22:00,45.0,45.0,29.91,WSW,243,0.0,0.0,100,0.04,,,-99.99,,2013-01-17 11:22:00,
2013-01-17 06:33:00,45.0,45.0,29.90,WSW,243,0.0,1.0,100,0.04,,,-99.99,,2013-01-17 11:33:00,
2013-01-17 06:43:00,45.0,45.0,29.90,WSW,243,0.0,1.0,100,0.04,,,-99.99,,2013-01-17 11:43:00,
2013-01-17 06:53:00,45.0,45.0,29.90,WSW,243,0.0,1.0,100,0.04,,,-99.99,,2013-01-17 11:53:00,
2013-01-17 07:03:00,45.0,45.0,29.89,WSW,243,0.0,2.0,100,0.02,,,-99.99,,2013-01-17 12:03:00,
2013-01-17 07:12:00,45.0,45.0,29.89,WSW,243,0.0,2.0,100,0.02,,,-99.99,,2013-01-17 12:12:00,
2013-01-17 07:23:00,45.0,45.0,29.89,WSW,243,0.0,2.0,100,0.02,,,-99.99,,2013-01-17 12:23:00,
2013-01-17 07:33:00,44.0,44.0,29.88,North,359,0.0,0.0,100,0.01,,,-99.99,,2013-01-17 12:33:00,
2013-01-17 07:43:00,44.0,44.0,29.88,North,359,0.0,0.0,100,0.01,,,-99.99,,2013-01-17 12:43:00,
2013-01-17 07:53:00,44.0,44.0,29.88,North,359,0.0,0.0,100,0.01,,,-99.99,,2013-01-17 12:53:00,
2013-01-17 08:03:00,44.0,44.0,29.88,West,267,0.0,1.0,100,0.02,,,-99.99,,2013-01-17 13:03:00,
2013-01-17 08:12:00,44.0,44.0,29.88,West,267,0.0,1.0,100,0.02,,,-99.99,,2013-01-17 13:12:00,
2013-01-17 08:23:00,44.0,44.0,29.88,West,267,0.0,1.0,100,0.02,,,-99.99,,2013-01-17 13:23:00,
2013-01-17 08:33:00,44.0,44.0,29.88,West,267,0.0,0.0,100,0.06,,,-99.99,,2013-01-17 13:33:00,
2013-01-17 08:43:00,44.0,44.0,29.88,West,267,0.0,0.0,100,0.06,,,-99.99,,2013-01-17 13:43:00,
2013-01-17 08:53:00,44.0,44.0,29.88,West,267,0.0,0.0,100,0.06,,,-99.99,,2013-01-17 13:53:00,
2013-01-17 09:03:00,44.0,44.0,29.88,WNW,299,0.0,1.0,100,0.07,,,-99.99,,2013-01-17 14:03:00,
2013-01-17 09:12:00,44.0,44.0,29.88,WNW,299,0.0,1.0,100,0.07,,,-99.99,,2013-01-17 14:12:00,
2013-01-17 09:23:00,44.0,44.0,29.88,WNW,299,0.0,1.0,100,0.07,,,-99.99,,2013-01-17 14:23:00,
2013-01-17 09:33:00,44.0,44.0,29.88,NNW,340,0.0,1.0,100,0.06,,,-99.99,,2013-01-17 14:33:00,
2013-01-17 09:43:00,44.0,44.0,29.88,NNW,340,0.0,1.0,100,0.06,,,-99.99,,2013-01-17 14:43:00,
2013-01-17 09:53:00,44.0,44.0,29.88,NNW,340,0.0,1.0,100,0.06,,,-99.99,,2013-01-17 14:53:00,
2013-01-17 10:03:00,44.0,44.0,29.88,NW,316,0.0,2.0,100,0.10,,,-99.99,,2013-01-17 15:03:00,
2013-01-17 10:12:00,44.0,44.0,29.88,NW,316,0.0,2.0,100,0.10,,,-99.99,,2013-01-17 15:12:00,
2013-01-17 10:23:00,44.0,44.0,29.88,NW,316,0.0,2.0,100,0.10,,,-99.99,,2013-01-17 15:23:00,
2013-01-17 10:33:00,44.0,44.0,29.86,NNW,339,1.0,3.0,100,0.09,,,-99.99,,2013-01-17 15:33:00,
2013-01-17 10:43:00,44.0,44.0,29.86,NNW,339,1.0,3.0,100,0.09,,,-99.99,,2013-01-17 15:43:00,
2013-01-17 10:53:00,44.0,44.0,29.86,NNW,339,1.0,3.0,100,0.09,,,-99.99,,2013-01-17 15:53:00,
2013-01-17 11:03:00,44.0,44.0,29.84,NW,305,0.0,1.0,100,0.06,,,-99.99,,2013-01-17 16:03:00,
2013-01-17 11:12:00,44.0,44.0,29.84,NW,305,0.0,1.0,100,0.06,,,-99.99,,2013-01-17 16:12:00,
2013-01-17 11:23:00,44.0,44.0,29.84,NW,305,0.0,1.0,100,0.06,,,-99.99,,2013-01-17 16:23:00,
2013-01-17 11:33:00,44.0,44.0,29.83,NW,305,0.0,0.0,100,0.17,,,-99.99,,2013-01-17 16:33:00,
2013-01-17 11:43:00,44.0,44.0,29.83,NW,305,0.0,0.0,100,0.17,,,-99.99,,2013-01-17 16:43:00,
2013-01-17 11:53:00,44.0,44.0,29.83,NW,305,0.0,0.0,100,0.17,,,-99.99,,2013-01-17 16:53:00,
2013-01-17 12:03:00,44.0,44.0,29.80,NNW,346,1.0,4.0,100,0.22,,,-99.99,,2013-01-17 17:03:00,
2013-01-17 12:13:00,44.0,44.0,29.80,NNW,346,1.0,4.0,100,0.22,,,-99.99,,2013-01-17 17:13:00,
2013-01-17 12:23:00,44.0,44.0,29.80,NNW,346,1.0,4.0,100,0.22,,,-99.99,,2013-01-17 17:23:00,
2013-01-17 12:33:00,44.0,44.0,29.78,WNW,285,0.0,2.0,100,0.21,,,-99.99,,2013-01-17 17:33:00,
2013-01-17 12:43:00,44.0,44.0,29.78,WNW,285,0.0,2.0,100,0.21,,,-99.99,,2013-01-17 17:43:00,
2013-01-17 12:54:00,44.0,44.0,29.78,WNW,285,0.0,2.0,100,0.21,,,-99.99,,2013-01-17 17:54:00,
2013-01-17 13:04:00,44.0,44.0,29.76,NW,326,0.0,2.0,100,0.17,,,-99.99,,2013-01-17 18:04:00,
2013-01-17 13:12:00,44.0,44.0,29.76,NW,326,0.0,2.0,100,0.17,,,-99.99,,2013-01-17 18:12:00,
2013-01-17 13:23:00,44.0,44.0,29.76,NW,326,0.0,2.0,100,0.17,,,-99.99,,2013-01-17 18:23:00,
2013-01-17 13:34:00,45.0,45.0,29.74,NW,326,1.0,2.0,100,0.14,,,-99.99,,2013-01-17 18:34:00,
2013-01-17 13:43:00,45.0,45.0,29.74,NW,326,1.0,2.0,100,0.14,,,-99.99,,2013-01-17 18:43:00,
2013-01-17 13:53:00,45.0,45.0,29.74,NW,326,1.0,2.0,100,0.14,,,-99.99,,2013-01-17 18:53:00,
2013-01-17 14:03:00,44.0,44.0,29.73,WNW,294,0.0,3.0,100,0.17,,,-99.99,,2013-01-17 19:03:00,
2013-01-17 14:13:00,44.0,44.0,29.73,WNW,294,0.0,3.0,100,0.17,,,-99.99,,2013-01-17 19:13:00,
2013-01-17 14:23:00,44.0,44.0,29.73,WNW,294,0.0,3.0,100,0.17,,,-99.99,,2013-01-17 19:23:00,
2013-01-17 14:33:00,43.0,43.0,29.73,NNW,335,0.0,6.0,100,0.19,,,-99.99,,2013-01-17 19:33:00,
2013-01-17 14:43:00,43.0,43.0,29.73,NNW,335,0.0,6.0,100,0.19,,,-99.99,,2013-01-17 19:43:00,
2013-01-17 14:54:00,43.0,43.0,29.73,NNW,335,0.0,6.0,100,0.19,,,-99.99,,2013-01-17 19:54:00,
2013-01-17 15:03:00,41.0,41.0,29.78,NW,308,0.0,4.0,100,0.17,,,-99.99,,2013-01-17 20:03:00,
2013-01-17 15:12:00,41.0,41.0,29.78,NW,308,0.0,4.0,100,0.17,,,-99.99,,2013-01-17 20:12:00,
2013-01-17 15:23:00,41.0,41.0,29.78,NW,308,0.0,4.0,100,0.17,,,-99.99,,2013-01-17 20:23:00,
2013-01-17 15:33:00,41.0,41.0,29.79,North,352,0.0,2.0,100,0.16,,,-99.99,,2013-01-17 20:33:00,
2013-01-17 15:43:00,41.0,41.0,29.79,North,352,0.0,2.0,100,0.16,,,-99.99,,2013-01-17 20:43:00,
2013-01-17 15:54:00,41.0,41.0,29.79,North,352,0.0,2.0,100,0.16,,,-99.99,,2013-01-17 20:54:00,
2013-01-17 16:03:00,41.0,41.0,29.75,WNW,298,1.0,5.0,100,0.17,,,-99.99,,2013-01-17 21:03:00,
2013-01-17 16:13:00,41.0,41.0,29.75,WNW,298,1.0,5.0,100,0.17,,,-99.99,,2013-01-17 21:13:00,
2013-01-17 16:23:00,41.0,41.0,29.75,WNW,298,1.0,5.0,100,0.17,,,-99.99,,2013-01-17 21:23:00,
2013-01-17 16:34:00,40.0,40.0,29.72,NNW,330,2.0,5.0,100,0.10,,,-99.99,,2013-01-17 21:34:00,
2013-01-17 16:43:00,40.0,40.0,29.72,NNW,330,2.0,5.0,100,0.10,,,-99.99,,2013-01-17 21:43:00,
2013-01-17 16:53:00,40.0,40.0,29.72,NNW,330,2.0,5.0,100,0.10,,,-99.99,,2013-01-17 21:53:00,
2013-01-17 17:04:00,40.0,40.0,29.69,West,274,0.0,8.0,100,0.06,,,-99.99,,2013-01-17 22:04:00,
2013-01-17 17:12:00,40.0,40.0,29.69,West,274,0.0,8.0,100,0.06,,,-99.99,,2013-01-17 22:12:00,
2013-01-17 17:23:00,40.0,40.0,29.69,West,274,0.0,8.0,100,0.06,,,-99.99,,2013-01-17 22:23:00,
2013-01-17 17:33:00,39.0,39.0,29.76,WNW,295,3.0,7.0,100,0.03,,,-99.99,,2013-01-17 22:33:00,
2013-01-17 17:43:00,39.0,39.0,29.76,WNW,295,3.0,7.0,100,0.03,,,-99.99,,2013-01-17 22:43:00,
2013-01-17 17:53:00,39.0,39.0,29.76,WNW,295,3.0,7.0,100,0.03,,,-99.99,,2013-01-17 22:53:00,
2013-01-17 18:03:00,38.0,38.0,29.78,WNW,299,5.0,12.0,100,0.00,,,-99.99,,2013-01-17 23:03:00,
2013-01-17 18:12:00,38.0,38.0,29.78,WNW,299,5.0,12.0,100,0.00,,,-99.99,,2013-01-17 23:12:00,
2013-01-17 18:23:00,38.0,38.0,29.78,WNW,299,5.0,12.0,100,0.00,,,-99.99,,2013-01-17 23:23:00,
2013-01-17 18:33:00,37.0,37.0,29.81,WNW,289,5.0,8.0,100,0.01,,,-99.99,,2013-01-17 23:33:00,
2013-01-17 18:43:00,37.0,37.0,29.81,WNW,289,5.0,8.0,100,0.01,,,-99.99,,2013-01-17 23:43:00,
2013-01-17 18:53:00,37.0,37.0,29.81,WNW,289,5.0,8.0,100,0.01,,,-99.99,,2013-01-17 23:53:00,
2013-01-17 19:03:00,36.0,36.0,29.84,WNW,299,4.0,11.0,100,0.01,,,-99.99,,2013-01-18 00:03:00,
2013-01-17 19:12:00,36.0,36.0,29.84,WNW,299,4.0,11.0,100,0.01,,,-99.99,,2013-01-18 00:12:00,
2013-01-17 19:23:00,36.0,36.0,29.84,WNW,299,4.0,11.0,100,0.01,,,-99.99,,2013-01-18 00:23:00,
2013-01-17 19:33:00,36.0,36.0,29.84,WNW,299,4.0,11.0,100,0.01,,,-99.99,,2013-01-18 00:33:00,
2013-01-17 19:42:00,35.0,35.0,29.90,WNW,296,3.0,8.0,100,0.01,,,-99.99,,2013-01-18 00:42:00,
2013-01-17 19:53:00,35.0,35.0,29.90,WNW,296,3.0,8.0,100,0.01,,,-99.99,,2013-01-18 00:53:00,
2013-01-17 20:03:00,36.0,36.0,29.93,WNW,294,3.0,11.0,100,0.02,,,-99.99,,2013-01-18 01:03:00,
2013-01-17 20:12:00,36.0,36.0,29.93,WNW,294,3.0,11.0,100,0.02,,,-99.99,,2013-01-18 01:12:00,
2013-01-17 20:23:00,36.0,36.0,29.93,WNW,294,3.0,11.0,100,0.02,,,-99.99,,2013-01-18 01:23:00,
2013-01-17 20:33:00,36.0,36.0,29.96,NW,304,2.0,5.0,100,0.01,,,-99.99,,2013-01-18 01:33:00,
2013-01-17 20:43:00,36.0,36.0,29.96,NW,304,2.0,5.0,100,0.01,,,-99.99,,2013-01-18 01:43:00,
2013-01-17 20:53:00,36.0,36.0,29.96,NW,304,2.0,5.0,100,0.01,,,-99.99,,2013-01-18 01:53:00,
2013-01-17 21:03:00,36.0,36.0,30.00,WNW,287,0.0,5.0,100,0.01,,,1.41,,2013-01-18 02:03:00,
2013-01-17 21:12:00,36.0,36.0,30.00,WNW,287,0.0,5.0,100,0.01,,,1.41,,2013-01-18 02:12:00,
2013-01-17 21:23:00,36.0,36.0,30.00,WNW,287,0.0,5.0,100,0.01,,,1.41,,2013-01-18 02:23:00,
2013-01-17 21:33:00,35.0,35.0,30.02,WNW,292,2.0,10.0,100,0.01,,,1.41,,2013-01-18 02:33:00,
2013-01-17 21:42:00,35.0,35.0,30.02,WNW,292,2.0,10.0,100,0.01,,,1.41,,2013-01-18 02:42:00,
2013-01-17 21:53:00,35.0,35.0,30.02,WNW,292,2.0,10.0,100,0.01,,,1.41,,2013-01-18 02:53:00,
2013-01-17 22:02:00,34.0,34.0,30.04,WNW,299,3.0,7.0,100,0.00,,,1.41,,2013-01-18 03:02:00,
2013-01-17 22:12:00,34.0,34.0,30.04,WNW,299,3.0,7.0,100,0.00,,,1.41,,2013-01-18 03:12:00,
2013-01-17 22:23:00,34.0,34.0,30.04,WNW,299,3.0,7.0,100,0.00,,,1.41,,2013-01-18 03:23:00,
2013-01-17 22:33:00,33.0,33.0,30.04,SW,232,5.0,8.0,100,0.00,,,1.41,,2013-01-18 03:33:00,
2013-01-17 22:42:00,33.0,33.0,30.04,SW,232,5.0,8.0,100,0.00,,,1.41,,2013-01-18 03:42:00,
2013-01-17 22:53:00,33.0,33.0,30.04,SW,232,5.0,8.0,100,0.00,,,1.41,,2013-01-18 03:53:00,
2013-01-17 23:02:00,32.0,32.0,30.07,WNW,295,2.0,6.0,100,0.00,,,1.39,,2013-01-18 04:02:00,
2013-01-17 23:12:00,32.0,32.0,30.07,WNW,295,2.0,6.0,100,0.00,,,1.39,,2013-01-18 04:12:00,
2013-01-17 23:22:00,32.0,32.0,30.07,WNW,295,2.0,6.0,100,0.00,,,1.39,,2013-01-18 04:22:00,
2013-01-17 23:33:00,31.0,31.0,30.10,WNW,294,3.0,6.0,100,0.00,,,1.39,,2013-01-18 04:33:00,
2013-01-17 23:42:00,31.0,31.0,30.10,WNW,294,3.0,6.0,100,0.00,,,1.39,,2013-01-18 04:42:00,
2013-01-17 23:53:00,31.0,31.0,30.10,WNW,294,3.0,6.0,100,0.00,,,1.39,,2013-01-18 04:53:00,